Zouar Airport

Jump to: basic info | weather | comments

Related pages: nearby airports | nearby navaids | notams | map

Basic information (top)

Codes: FTTR
Location: lon 20.450001, lat 16.583000, elev 2,655 ft / 809 m msl
Status: small_airport

Weather (top)

Current conditions for Faya Largeau Airport 209nm (387km) SE (rec'd 2014/04/24 15:00Z):

FTTY 241500Z 00000KT CAVOK 45/05 Q////

Airport forecast for Kufra Airport 436nm (807km) ENE (rec'd 2014/04/24 06:00Z):

TAF HLKF 240500Z 2406/2506 36008KT CAVOK 
      BECMG2500/2502 34014KT 

Latest comments (top)

No comments yet for Zouar Airport

More... (top)

See also NOTAMs and nearby airports and navaids, or visit the Zouar Airport page at the main OurAirports website..